This is the latest recevied weather packets stored in our database for station/object KC3ELT-10. If no packets are shown the sender has not sent any weather packets the latest 1 day(s).
| Time | Temp. | Humidity | Pressure | Rain* | Wind** | Luminosity | Snow |
|---|---|---|---|---|---|---|---|
| 1778052179 | 17.22° C | 71% | 1002.4 hPa | 0 mm | 1.79 m/s, 161° | - | - |
| 1778051879 | 17.22° C | 71% | 1002.4 hPa | 0 mm | 2.68 m/s, 149° | - | - |
| 1778051579 | 17.22° C | 71% | 1002.4 hPa | 0 mm | 1.79 m/s, 154° | - | - |
| 1778051279 | 17.22° C | 71% | 1002.4 hPa | 0 mm | 2.24 m/s, 188° | - | - |
| 1778050979 | 17.22° C | 71% | 1002.4 hPa | 0 mm | 2.68 m/s, 147° | - | - |
| 1778050679 | 17.22° C | 71% | 1002.5 hPa | 0 mm | 4.47 m/s, 188° | - | - |
| 1778050379 | 17.22° C | 70% | 1002.5 hPa | 0 mm | 1.34 m/s, 144° | - | - |
| 1778050079 | 17.22° C | 70% | 1002.5 hPa | 0 mm | 1.79 m/s, 159° | - | - |
| 1778049779 | 17.22° C | 70% | 1002.6 hPa | 0 mm | 1.79 m/s, 188° | - | - |
| 1778049479 | 17.22° C | 70% | 1002.6 hPa | 0 mm | 4.02 m/s, 160° | - | - |
| 1778049179 | 17.22° C | 69% | 1002.6 hPa | 0 mm | 1.34 m/s, 181° | - | - |
| 1778048879 | 17.78° C | 69% | 1002.8 hPa | 0 mm | 2.24 m/s, 210° | - | - |
| 1778048579 | 17.78° C | 69% | 1002.8 hPa | 0 mm | 0.89 m/s, 199° | - | - |
| 1778048279 | 17.78° C | 68% | 1002.8 hPa | 0 mm | 1.79 m/s, 242° | - | - |
| 1778047979 | 17.78° C | 68% | 1003 hPa | 0 mm | 1.34 m/s, 196° | - | - |
| 1778047679 | 17.78° C | 68% | 1003 hPa | 0 mm | 1.79 m/s, 229° | - | - |
| 1778047379 | 17.78° C | 68% | 1003 hPa | 0 mm | 5.36 m/s, 206° | - | - |
| 1778047079 | 17.78° C | 68% | 1003 hPa | 0 mm | 4.02 m/s, 230° | - | - |
| 1778046779 | 17.78° C | 68% | 1003 hPa | 0 mm | 2.68 m/s, 238° | - | - |
| 1778046479 | 17.78° C | 68% | 1003 hPa | 0 mm | 2.68 m/s, 200° | - | - |
| 1778046179 | 17.78° C | 67% | 1003 hPa | 0 mm | 3.13 m/s, 203° | - | - |
| 1778045879 | 17.78° C | 67% | 1003 hPa | 0 mm | 1.79 m/s, 187° | - | - |
| 1778045579 | 17.78° C | 67% | 1003 hPa | 0 mm | 1.34 m/s, 198° | - | - |
| 1778045279 | 17.78° C | 67% | 1003.2 hPa | 0 mm | 2.68 m/s, 206° | - | - |
| 1778044979 | 17.78° C | 67% | 1003.2 hPa | 0 mm | 1.79 m/s, 173° | - | - |
* Rain latest hour (hover to see other rain measurements)
** Current wind speed in m/s (hover to see current wind gust speed)